Simultaneous Nadir Overpasses (SNOs) Predictions

Prediction of SNOs between AQUA and NPP Satellite Orbit:

Table of predicted SNOs for the next 14.0 days since TLE Epoch: 6/8/2018
Index Date (AQUA) Time (AQUA) Lat,Lon (AQUA) SZA (AQUA ) Date (NPP) Time (NPP) Lat,Lon (NPP) SZA (NPP ) Distance(km) Time Diff (sec)
1 06/09/2018 22:38:37 75.77, 78.78 74.95 06/09/2018 22:38:28 75.76, 78.69 74.98 2.66 9
2 06/09/2018 23:27:41 -76.91,-109.86 106.41 06/09/2018 23:28:48 -76.91,-109.81 106.48 1.45 67
3 06/12/2018 14:05:49 -75.32, 25.72 104.69 06/12/2018 14:04:48 -75.33, 25.79 104.65 2.12 61
4 06/12/2018 14:54:56 76.22,-163.97 74.27 06/12/2018 14:55:13 76.22,-163.99 74.26 0.42 17
5 06/15/2018 06:22:14 -75.43, 141.90 104.92 06/15/2018 06:21:40 -75.42, 141.84 104.87 1.88 34
6 06/15/2018 07:11:13 76.70, -46.48 73.59 06/15/2018 07:11:56 76.71, -46.40 73.53 2.30 43
7 06/17/2018 22:38:32 -75.92,-100.77 105.55 06/17/2018 22:38:24 -75.92,-100.76 105.55 0.46 8
8 06/17/2018 23:27:39 76.79, 69.72 73.42 06/17/2018 23:28:49 76.79, 69.70 73.37 0.62 70
9 06/20/2018 14:05:45 75.26,-154.42 75.21 06/20/2018 14:04:47 75.27,-154.36 75.24 1.77 58




NCC Satellite Simultaneous Nadir Overpasses (SNOs) Prediction Service
